Date String (YYYY-MM-DD hh:mm:ss) UTC,Instrument flags,absolute air pressure of the measurement (hPa),sample flow rate (lpm),inlet stack bypass flow (lpm),air temperature of the measurement (°C),ambient temperature measured by the external sensor (°C),aerosol sample conditioner tube jacket temperature (°C),OPC LED temperature (°C),internal box temperature (°C),relative humidity of the measurement (%),span deviation,mass concentration of particles derived from Lorenz-Mie calculation of OPC scattering (μg/m³),mass concentration of particles derived from Lorenz-Mie calculation of OPC scattering (μg/m³),mass concentration of particles derived from Lorenz-Mie calculation of OPC scattering (μg/m³)
DateTimeUTC,F1_M11,P_M11,Q1_M11,Q2_M11,T1_M11,T2_M11,T3_M11,T4_M11,T5_M11,U1_M11,ZSPAN_M11,X0_M11,X2_M11,X1_M11
2023-09-09 03:00:00,SystemResetWarning,0834.7,5.00,000.00,027.7,024.4,000.0,036.0,029.0,16.0,0002.0,0023.68,0006.38,0004.54
2023-09-09 03:01:00,SystemResetWarning,0834.7,4.99,000.00,027.7,024.8,000.0,036.0,029.1,16.3,0001.8,0022.31,0006.29,0004.54
2023-09-09 03:02:00,SystemResetWarning,0834.9,5.00,000.00,027.7,025.3,000.0,036.0,029.2,16.6,0001.6,0022.77,0006.33,0004.53
2023-09-09 03:03:00,SystemResetWarning,0834.9,5.00,000.00,027.7,025.7,000.0,036.0,029.2,16.9,0001.4,0022.37,0006.34,0004.53
2023-09-09 03:04:00,SystemResetWarning,0834.7,5.00,000.00,027.7,026.0,000.0,036.0,029.4,16.4,0001.3,0023.30,0006.43,0004.53
2023-09-09 03:05:00,SystemResetWarning,0835.1,5.00,000.00,027.8,026.3,000.0,036.1,029.4,16.7,0001.1,0024.61,0006.48,0004.54
2023-09-09 03:06:00,SystemResetWarning,0835.3,4.99,000.00,027.8,026.5,000.0,036.1,029.5,16.9,0000.8,0023.70,0006.41,0004.54
2023-09-09 03:07:00,SystemResetWarning,0835.4,4.99,000.00,027.8,026.7,000.0,036.1,029.6,17.0,0000.6,0022.95,0006.23,0004.53
2023-09-09 03:08:00,SystemResetWarning,0834.9,5.00,000.00,027.9,026.9,000.0,036.1,029.6,17.0,0000.6,0023.66,0006.09,0004.51
2023-09-09 03:09:00,SystemResetWarning,0835.0,5.00,000.00,028.0,027.0,000.0,036.2,029.7,14.7,0001.1,0022.00,0006.06,0004.50
2023-09-09 03:10:00,SystemResetWarning,0835.0,5.01,000.00,028.0,027.1,000.0,036.2,029.8,13.9,0000.9,0022.64,0006.11,0004.50
2023-09-09 03:11:00,SystemResetWarning,0835.0,4.98,000.00,028.0,026.1,000.0,036.2,029.6,13.0,0000.4,0022.69,0006.13,0004.49
2023-09-09 03:12:00,SystemResetWarning,0835.0,5.00,000.00,028.0,024.8,000.0,036.1,029.4,12.8,0000.6,0022.82,0006.15,0004.47
2023-09-09 03:13:00,SystemResetWarning,0835.0,5.01,000.00,027.9,024.7,000.0,036.1,029.4,12.8,0000.9,0021.93,0006.10,0004.44
2023-09-09 03:14:00,SystemResetWarning,0835.0,5.01,000.00,027.8,024.9,000.0,036.1,029.2,12.5,0000.7,0021.35,0006.04,0004.42
2023-09-09 03:15:00,SystemResetWarning,0835.0,5.00,000.00,027.8,025.3,000.0,036.1,029.3,12.0,0000.8,0021.95,0005.94,0004.40
2023-09-09 03:16:00,SystemResetWarning,0835.0,5.00,000.00,027.8,025.6,000.0,036.1,029.3,11.8,0000.2,0021.42,0005.95,0004.38
2023-09-09 03:17:00,SystemResetWarning,0835.1,5.00,000.00,027.9,026.0,000.0,036.2,029.4,11.4,0000.2,0021.67,0005.94,0004.36
2023-09-09 03:18:00,SystemResetWarning,0835.1,5.00,000.00,027.9,026.3,000.0,036.2,029.5,11.2,-000.0,0021.21,0006.02,0004.34
2023-09-09 03:19:00,SystemResetWarning,0835.1,5.00,000.00,027.9,026.5,000.0,036.2,029.6,11.1,-000.1,0019.32,0006.03,0004.32
2023-09-09 03:20:00,SystemResetWarning,0835.1,5.01,000.00,028.0,026.7,000.0,036.2,029.6,11.0,-000.6,0019.62,0005.94,0004.25
2023-09-09 03:21:00,SystemResetWarning,0835.2,5.00,000.00,028.0,026.9,000.0,036.3,029.7,10.9,-000.8,0018.93,0005.79,0004.15
2023-09-09 03:22:00,SystemResetWarning,0835.1,5.00,000.00,028.1,027.0,000.0,036.3,029.8,10.8,-000.6,0018.19,0005.58,0004.03
2023-09-09 03:23:00,SystemResetWarning,0835.1,5.00,000.00,028.1,027.2,000.0,036.3,029.8,10.6,-001.3,0017.31,0005.36,0003.89
2023-09-09 03:24:00,SystemResetWarning,0835.2,4.99,000.00,028.1,026.7,000.0,036.3,029.8,10.4,-001.1,0017.59,0005.16,0003.76
2023-09-09 03:25:00,SystemResetWarning,0835.1,4.99,000.00,028.1,025.1,000.0,036.2,029.5,10.3,0000.0,0017.26,0004.95,0003.60
2023-09-09 03:26:00,SystemResetWarning,0835.1,5.01,000.00,028.1,024.7,000.0,036.2,029.5,10.4,0000.0,0015.95,0004.69,0003.42
2023-09-09 03:27:00,SystemResetWarning,0835.2,5.02,000.00,028.0,024.9,000.0,036.2,029.4,10.3,0000.0,0014.15,0004.35,0003.23
2023-09-09 03:28:00,SystemResetWarning,0835.1,5.00,000.00,027.9,025.2,000.0,036.2,029.3,10.4,0000.0,0012.77,0004.06,0002.99
2023-09-09 03:29:00,SystemResetWarning,0835.2,5.00,000.00,027.9,025.6,000.0,036.2,029.4,10.5,0000.0,0012.27,0003.83,0002.74
2023-09-09 03:30:00,SystemResetWarning,0835.2,5.00,000.00,027.9,025.9,000.0,036.3,029.5,10.6,0000.0,0012.43,0003.60,0002.51
2023-09-09 03:31:00,SystemResetWarning,0835.2,5.00,000.00,028.0,026.2,000.0,036.3,029.5,10.5,0000.0,0012.80,0003.50,0002.39
2023-09-09 03:32:00,SystemResetWarning,0835.2,5.00,000.00,028.0,026.5,000.0,036.3,029.6,10.8,0000.0,0013.23,0003.46,0002.42
2023-09-09 03:33:00,SystemResetWarning,0835.1,4.99,000.00,028.0,026.7,000.0,036.3,029.7,10.7,0000.0,0013.90,0003.55,0002.52
2023-09-09 03:34:00,SystemResetWarning,0835.1,5.00,000.00,028.1,026.9,000.0,036.4,029.8,11.2,0000.0,0014.94,0003.67,0002.61
2023-09-09 03:35:00,SystemResetWarning,0835.1,5.00,000.00,028.1,027.0,000.0,036.4,029.8,10.6,0000.0,0014.65,0003.76,0002.74
2023-09-09 03:36:00,SystemResetWarning,0835.2,4.99,000.00,028.2,026.9,000.0,036.4,029.9,10.0,0000.0,0014.26,0003.87,0002.93
2023-09-09 03:37:00,SystemResetWarning,0835.0,5.00,000.00,028.2,025.3,000.0,036.3,029.6,9.8,0000.0,0014.27,0004.08,0003.15
2023-09-09 03:38:00,SystemResetWarning,0835.0,5.00,000.00,028.0,023.9,000.0,036.2,029.3,9.9,0000.0,0015.74,0004.32,0003.31
2023-09-09 03:39:00,SystemResetWarning,0835.0,5.01,000.00,028.0,023.8,000.0,036.1,029.2,9.9,0000.0,0018.16,0004.59,0003.47
2023-09-09 03:40:00,SystemResetWarning,0835.0,5.01,000.00,027.8,024.1,000.0,036.2,029.1,10.2,0001.8,0018.79,0004.71,0003.55
2023-09-09 03:41:00,SystemResetWarning,0835.0,5.00,000.00,027.8,024.6,000.0,036.2,029.1,10.1,0002.7,0019.31,0004.88,0003.66
2023-09-09 03:42:00,SystemResetWarning,0835.1,4.99,000.00,027.8,025.0,000.0,036.2,029.2,10.0,0003.1,0020.06,0004.99,0003.74
2023-09-09 03:43:00,SystemResetWarning,0835.1,5.00,000.00,027.8,025.4,000.0,036.2,029.2,10.0,0003.2,0020.22,0005.02,0003.76
2023-09-09 03:44:00,SystemResetWarning,0835.1,5.00,000.00,027.8,025.8,000.0,036.2,029.3,10.0,0003.4,0020.43,0005.00,0003.76
2023-09-09 03:45:00,SystemResetWarning,0835.1,5.00,000.00,027.8,026.1,000.0,036.2,029.4,10.0,0003.1,0020.24,0004.86,0003.70
2023-09-09 03:46:00,SystemResetWarning,0835.1,5.00,000.00,027.9,026.3,000.0,036.2,029.5,9.9,0003.0,0020.81,0004.75,0003.62
2023-09-09 03:47:00,SystemResetWarning,0835.1,5.00,000.00,027.9,026.5,000.0,036.2,029.5,10.0,0002.7,0020.80,0004.60,0003.51
2023-09-09 03:48:00,SystemResetWarning,0835.1,4.99,000.00,027.9,026.7,000.0,036.2,029.6,10.1,0002.7,0020.81,0004.46,0003.41
2023-09-09 03:49:00,SystemResetWarning,0835.1,5.00,000.00,028.0,026.9,000.0,036.3,029.7,10.0,0001.7,0020.67,0004.31,0003.27
2023-09-09 03:50:00,SystemResetWarning,0835.2,4.99,000.00,028.0,027.0,000.0,036.3,029.7,10.1,0000.3,0019.68,0004.09,0003.13
2023-09-09 03:51:00,SystemResetWarning,0835.2,4.99,000.00,028.1,027.1,000.0,036.3,029.8,10.1,0000.0,0019.33,0003.90,0002.94
2023-09-09 03:52:00,SystemResetWarning,0835.1,5.00,000.00,028.1,027.2,000.0,036.4,029.8,10.1,0000.0,0018.11,0003.64,0002.64
2023-09-09 03:53:00,SystemResetWarning,0835.1,4.99,000.00,028.2,026.5,000.0,036.3,029.7,10.1,0000.0,0015.94,0003.37,0002.34
2023-09-09 03:54:00,SystemResetWarning,0835.1,5.00,000.00,028.1,025.0,000.0,036.3,029.5,10.4,0000.0,0013.84,0003.11,0002.03
2023-09-09 03:55:00,SystemResetWarning,0835.1,5.01,000.00,028.0,024.8,000.0,036.2,029.5,10.6,0000.0,0013.18,0002.82,0001.77
2023-09-09 03:56:00,SystemResetWarning,0835.1,5.01,000.00,028.0,025.0,000.0,036.2,029.3,10.6,0000.0,0012.05,0002.57,0001.61
2023-09-09 03:57:00,SystemResetWarning,0835.1,4.99,000.00,027.9,025.3,000.0,036.2,029.3,10.5,0000.0,0011.42,0002.42,0001.48
2023-09-09 03:58:00,SystemResetWarning,0835.1,5.00,000.00,027.9,025.6,000.0,036.3,029.4,10.4,0000.0,0010.53,0002.33,0001.40
2023-09-09 03:59:00,SystemResetWarning,0835.1,5.01,000.00,027.9,026.0,000.0,036.3,029.5,10.5,0000.0,0010.16,0002.23,0001.31
